This is the latest recevied weather packets stored in our database for station/object W0WC. If no packets are shown the sender has not sent any weather packets the latest 10 day(s).
| Time | Temp. | Humidity | Pressure | Rain* | Wind** | Luminosity | Snow |
|---|---|---|---|---|---|---|---|
| 1787868199 | 33.33° C | 30% | 1017.4 hPa | 0 mm | - | 353 W/m² | - |
| 1787867895 | 32.78° C | 29% | 1017.5 hPa | 0 mm | - | 367 W/m² | - |
| 1787867591 | 32.78° C | 30% | 1017.5 hPa | 0 mm | - | 384 W/m² | - |
| 1787867291 | 32.78° C | 30% | 1017.5 hPa | 0 mm | - | 400 W/m² | - |
| 1787866987 | 32.78° C | 30% | 1017.6 hPa | 0 mm | - | 413 W/m² | - |
| 1787866681 | 32.78° C | 30% | 1017.5 hPa | 0 mm | - | 427 W/m² | - |
| 1787866380 | 33.33° C | 30% | 1017.6 hPa | 0 mm | - | 423 W/m² | - |
| 1787866075 | 32.78° C | 31% | 1017.5 hPa | 0 mm | - | 437 W/m² | - |
| 1787865769 | 33.33° C | 30% | 1018 hPa | 0 mm | - | 392 W/m² | - |
| 1787865465 | 32.78° C | 30% | 1017.9 hPa | 0 mm | - | 465 W/m² | - |
| 1787865159 | 32.78° C | 30% | 1017.9 hPa | 0 mm | - | 438 W/m² | - |
| 1787864856 | 32.78° C | 29% | 1018 hPa | 0 mm | - | 385 W/m² | - |
| 1787864556 | 32.78° C | 30% | 1018 hPa | 0 mm | - | 497 W/m² | - |
| 1787864250 | 33.33° C | 31% | 1018.1 hPa | 0 mm | - | 485 W/m² | - |
| 1787863946 | 33.33° C | 34% | 1017.9 hPa | 0 mm | - | 451 W/m² | - |
| 1787863644 | 32.78° C | 34% | 1017.8 hPa | 0 mm | - | 461 W/m² | - |
| 1787863337 | 32.78° C | 34% | 1018.2 hPa | 0 mm | - | 523 W/m² | - |
| 1787863034 | 33.33° C | 34% | 1018 hPa | 0 mm | - | 496 W/m² | - |
| 1787862729 | 32.78° C | 36% | 1018.1 hPa | 0 mm | - | 517 W/m² | - |
| 1787862424 | 32.78° C | 36% | 1018.3 hPa | 0 mm | - | 551 W/m² | - |
| 1787862119 | 33.33° C | 36% | 1018.2 hPa | 0 mm | - | 585 W/m² | - |
| 1787861819 | 33.33° C | 36% | 1018.2 hPa | 0 mm | - | 592 W/m² | - |
| 1787861517 | 33.33° C | 35% | 1018.2 hPa | 0 mm | - | 600 W/m² | - |
| 1787861212 | 33.33° C | 36% | 1018.2 hPa | 0 mm | - | 654 W/m² | - |
| 1787860910 | 32.78° C | 36% | 1018.3 hPa | 0 mm | - | 647 W/m² | - |
* Rain latest hour (hover to see other rain measurements)
** Current wind speed in m/s (hover to see current wind gust speed)